Weather observations for the past three days for
Cape Lisburne, Cape Lisburne LRRS Airport
Metric (Imperial)
Date Time (akdt) Wind (kph) Vis. (km) Weather Sky Cond. Temperature (ºC) Relative Humidity Wind Chill (°C) Heat Index (°C) Pressure Precipitation (cm)
Air Dwpt 6 hour altimeter (cm) sea level (mb) 1 hr 3 hr 6 hr
Max. Min.
06 21:55 N 9 16.09 Overcast OVC006 -3.8 -4.3 -3.2 -4.6 96% -7 76.63 1021.6
06 20:55 NW 20 16.09 Overcast OVC006 -3 -4 93% -9 76.61 1021.4
06 19:55 NW 13 16.09 Overcast OVC006 -3 -4 93% -7 76.61 1021.3
06 18:55 NW 11 16.09 Overcast OVC006 -3.5 -4.4 94% -7 76.61 1021.1
06 17:55 NW 15 16.09 Overcast OVC006 -4 -4 100% -9 76.56 1020.6
06 16:55 N 13 16.09 Overcast OVC006 -4 -5 93% -8 76.53 1020.3
06 15:55 NW 15 16.09 Overcast OVC006 -4 -4.7 -4.4 -6.2 95% -9 76.5 1020.0
06 14:55 NW 19 16.09 Overcast OVC008 -4 -5 93% -10 76.5 1019.8
06 13:55 NW 11 16.09 Overcast OVC012 -5 -6 93% -9 76.48 1019.5
06 12:55 NW 15 16.09 Overcast OVC009 -5.3 -6.5 91% -10 76.45 1019.2
06 11:55 W 13 16.09 Overcast OVC009 -6 -7 93% -11 76.43 1018.9
06 10:55 NW 19 14.48 Overcast OVC006 -6 -7 93% -12 76.4 1018.4
06 09:55 N 15 16.09 Overcast OVC013 -4.9 -6.4 -4.7 -5.2 89% -10 76.35 1017.9
06 07:55 NW 7 16.09 Light Showers Snow OVC009 -5 -6 93% -8 76.28 1016.8
06 06:55 NW 11 16.09 Light Snow OVC009 -4.8 -5.6 94% -9 76.25 1016.4
06 05:55 NW 9 16.09 Light Snow OVC008 -5 -6 93% -9 76.23 1016.1
06 04:55 NW 11 16.09 Light Snow FEW016 OVC029 -5 -6 93% -9 76.2 1015.8
06 03:55 NW 9 16.09 Light Snow BKN010 OVC028 -4.9 -5.9 -4.6 -5 93% -8 76.2 1015.7
06 02:55 W 9 16.09 Light Snow OVC010 -5 -6 93% -9 76.17 1015.4
06 01:55 W 19 16.09 Light Snow OVC012 -5 -6 93% -11 76.15 1015.2
06 00:55 NW 17 16.09 Light Snow OVC011 -4.7 -6.1 90% -10 76.12 1015.0
05 23:55 W 13 16.09 Light Showers Snow OVC012 -5 -6 93% -10 76.12 1014.8
05 22:55 W 15 16.09 Overcast FEW013 OVC044 -5 -7 86% -10 76.12 1014.8
05 21:55 NW 15 16.09 Light Snow BKN012 OVC048 -4.9 -6.6 -4.6 -5.2 88% -10 76.1 1014.5
05 20:55 W 17 16.09 Light Snow BKN013 OVC049 -5 -7 86% -10 76.1 1014.5
05 19:55 NW 11 16.09 Light Showers Snow BKN014 OVC050 -5 -7 86% -9 76.07 1014.3
05 18:55 NW 11 16.09 Light Snow OVC014 -4.7 -6.8 85% -9 76.07 1014.2
05 17:55 NW 13 16.09 Light Showers Snow OVC012 -5 -7 86% -10 76.07 1014.1
05 16:55 NW 17 16.09 Light Showers Snow BKN013 OVC065 -5 -7 86% -10 76.07 1014.0
05 15:55 NW 17 16.09 Light Showers Snow OVC011 -5.1 -6.8 -4.5 -5.3 88% -11 76.05 1013.8
05 14:55 NW 17 14.48 Light Snow OVC011 -5 -7 86% -10 76.05 1013.9
05 13:55 NW 11 8.05 Light Snow OVC012 -5 -6 93% -9 76.05 1013.7
05 12:55 NW 15 6.44 Light Snow OVC013 -4.9 -6.5 89% -10 76.02 1013.6
05 11:55 NW 9 16.09 Light Showers Snow OVC012 -5 -7 86% -9 76.02 1013.5
05 10:55 Vrbl 11 16.09 Light Snow OVC012 -5 -7 86% -9 76.02 1013.5
05 09:55 NW 9 16.09 Light Snow OVC011 -5.2 -6.7 -4.2 -5.4 89% -9 76.05 1013.9
05 08:55 NW 9 16.09 Light Snow OVC010 -5 -6 93% -9 76.07 1014.0
05 07:55 NW 9 11.27 Light Showers Snow OVC012 -5 -7 86% -9 76.07 1014.1
05 06:55 W 13 16.09 Overcast OVC012 -5.1 -7.3 85% -10 76.05 1013.9
05 05:55 W 19 16.09 Light Snow OVC013 -5 -7 86% -11 76.05 1013.9
05 04:55 W 19 16.09 Overcast OVC011 -4 -6 86% -10 76.05 1013.9
05 03:55 W 15 16.09 Light Showers Snow OVC009 -4.3 -5.7 -1.9 -4.2 90% -9 76.07 1014.2
05 02:55 W 17 14.48 Light Showers Snow OVC008 -4 -5 93% -9 76.07 1014.3
05 01:55 SW 20 16.09 Light Snow BKN009 OVC060 -4 -5 93% -10 76.1 1014.6
05 00:55 NE 35 16.09 Light Snow and Breezy BKN008 BKN060 -3.3 -4.8 90% -11 76.1 1014.5
04 23:55 NW 28 G 41 6.44 Fog/Mist OVC007 -3 -4 93% -10 76.12 1014.9
04 22:55 N 28 G 43 6.44 Light Showers Snow OVC008 -3 -4 93% -10 76.12 1015.0
04 21:55 NE 33 12.87 Light Snow and Breezy OVC011 -2 -3.7 -1.8 -2.2 88% -9 76.12 1014.9
04 20:55 N 37 16.09 Overcast and Breezy OVC012 -2 -4 86% -9 76.15 1015.2
04 19:55 NE 35 4.02 Light Showers Snow Fog/Mist and Breezy BKN009 -2 -4 86% -9 76.17 1015.5
04 18:55 N 37 4.02 Light Snow Fog/Mist and Breezy BKN010 OVC033 -1.9 -3.4 90% -9 76.2 1015.8
04 17:55 E 35 G 43 6.44 Light Snow and Breezy OVC031 -2 -4 86% -9 76.23 1016.2
04 16:55 NE 31 G 39 1.61 Light Snow Fog/Mist OVC018 -2 -4 86% -9 76.28 1016.8
04 15:55 E 26 1.61 Light Snow Fog/Mist OVC013 -2 -4.1 -2.1 -3.9 86% -8 76.3 1017.2
04 14:55 E 30 1.61 Light Snow Fog/Mist OVC015 -2 -4 86% -9 76.33 1017.4
04 13:55 S 30 1.61 Light Snow Fog/Mist OVC011 -2 -4 86% -9 76.33 1017.6
04 12:55 NE 31 1.21 Light Snow Fog/Mist OVC014 -2.6 -4.6 86% -10 76.33 1017.7
04 11:55 NE 28 G 44 1.21 Light Snow Fog/Mist OVC012 -3 -5 86% -10 76.33 1017.6
04 10:55 N 39 G 50 1.21 Light Snow Fog/Mist and Breezy OVC013 -3 -5 86% -11 76.33 1017.5
04 09:55 SE 31 G 48 1.21 Light Snow Fog/Mist OVC018 -3.7 -5.6 -3.3 -4.6 87% -11 76.3 1017.2
04 08:55 S 30 G 43 1.61 Light Showers Snow Fog/Mist OVC007 -4 -6 86% -11 76.28 1017.0
04 07:55 SE 28 1.61 Light Snow Fog/Mist OVC010 -4 -6 86% -11 76.28 1017.0
04 06:55 S 31 2.41 Fog/Mist OVC010 -4.1 -5.8 88% -11 76.3 1017.1
04 05:55 NE 28 4.83 Light Showers Snow BKN004 -4 -6 86% -11 76.3 1017.1
04 04:55 NE 28 9.66 Light Snow OVC035 -4 -6 86% -11 76.28 1016.9
04 03:55 SW 26 G 39 12.87 Light Snow FEW010 SCT024 OVC033 -4 -6.3 0.5 -3.6 84% -11 76.28 1016.7
04 02:55 SW 15 9.66 Light Showers Snow OVC010 -3 -5 86% -8 76.25 1016.4
04 01:55 W 20 G 30 14.48 Light Snow OVC010 -3 -4 93% -9 76.23 1016.3
03 23:55 W 31 4.83 Light Snow Fog/Mist SCT013 OVC040 -1 -3 86% -7 76.17 1015.5
Date Time (akdt) Wind (kph) Vis. (km) Weather Sky Cond. Air Dwpt Max. Min. Relative Humidity Wind Chill (°C) Heat Index (°C) altimeter (cm) sea level (mb) 1 hr 3 hr 6 hr
6 hour
Temperature (ºC) Pressure Precipitation (cm)